Showing default

LEMUR 2 MARACHE-FRAN, 63262

Orbit data source: Space-Track

LEMUR 2 MARACHE-FRAN, 63262 is a payload satellite owned by Spire (US) in SSO that was launched on Sat, 15 Mar 2025 UTC via an FALCON 9 launch vehicle from the Air Force Western Test Range (AFWTR). Payload-class satellites include a variety of spacecraft equipped with specific instruments for various scientific and technological missions. These include communications satellites like Starlink; space stations such as the ISS; scientific satellites like the Hubble; Earth observation satellites from companies like Planet Labs, Umbra, and HawkEye 360; GPS; miniature CubeSats for education and research; and military/defense satellites.

Loading next visibility...
Identifier
63262, 2025-052BE
Orbit
SSO
Country
Flag of USUS
Related business
Manufacturer
Spire/Glasgow
Mission
Operational Commercial Com/MetRO
Bus & Motor
CUBESAT 6U, Unknown motor
Mass
10 kg wet, 10 kg dry
Launch date (UTC)
2025-03-15 (1 year ago)
Launch vehicle
FALCON 9
Launch site
Air Force Western Test Range (AFWTR)
Object type
Payload
Rocket body
Debris
Shape & HBR
Box, 14.5 m
Radar Cross Section
0.080 m², Medium (>0.1 m² and < 1m²)

Expand to show TLE details & history
Last TLE update: 16 hours ago

TLE from 16 hours ago
0 LEMUR 2 MARACHE-FRAN
1 63262U 25052BE  26171.20365968  .00004017  00000-0  32663-3 0  9994
2 63262  97.6933  64.7998 0005047  11.9319 348.2023 15.00125665 69212
Epoch: 2026-06-20T04:53Z
TLE epoch observation values (Epoch: 2026-06-20T04:53:16.196Z)
Latitude
-0.00003°
Longitude
83.06067°
Altitude
566.132 km
Speed
7.58 km/s
True Right ascension
04h 19m 11s
True Declination
0° 00' 00"
Sunlit
Object was in daylight at epoch
Visualization orbit readout
Latitude
Unknown
Longitude
Unknown
Altitude
Unknown
Speed
Unknown
Apparent Right ascension
Unknown
Apparent Declination
Unknown
Sunlit
N/A
Visualization observer readout
Local Sidereal Time
07:21:12
Azimuth
Unknown
Elevation
Unknown
Doppler factor
Unknown
Orbital elements
Apogee altitude
567.017 km
Perigee altitude
560.01 km
Semi-major axis
6,941.65 km
Eccentricity
0.0005
Inclination
97.6933°
RAAN
64.7998°
Arg. of periapsis
11.9319°
True anomaly
348.19047°
Mean anomaly
348.2023°
Eccentric anomaly
348.19638°
Mean motion
3.75275 °/min
Orbital period
95.93 mins
BSTAR
0.00032663
Loading maneuver chart data...
Computing Atmospheric mass density...
Loading historical data...
Loading historical data...
Loading historical data...
Loading historical data...
Loading historical data...
Loading historical data...
Loading historical data...

Documentation

Showing up to 5 results
|